KB4QOR Weather Reports


time (UTC)temp
C
wind
direction
speed
KPH
gust
KPH
rain 1hr
cm
rain 24hr
cm
rain mn
cm
humidity
%
barometer
mb
20260504003058 16 0 0.0 3.2 0.00 0.00 0.00 71 1014.1
20260504001530 16 259 0.0 6.4 0.00 0.00 0.00 71 1014.0
20260504000030 16 0 0.0 6.4 0.00 0.00 0.00 70 1014.1
20260503234533 16 273 3.2 12.9 0.00 0.00 0.00 70 1014.1
20260503233027 16 278 1.6 9.7 0.00 0.00 0.00 69 1014.1
20260503231541 17 252 3.2 11.3 0.00 0.00 0.00 68 1014.3
20260503230028 17 246 3.2 14.5 0.00 0.00 0.00 68 1014.5
20260503224528 17 265 3.2 14.5 0.00 0.00 0.00 66 1015.0
20260503223030 17 171 3.2 16.1 0.00 0.00 0.00 66 1015.3
20260503221527 17 88 4.8 17.7 0.00 0.00 0.00 64 1015.0
20260503220035 18 261 4.8 24.1 0.00 0.00 0.00 66 1015.6
20260503214527 18 297 3.2 20.9 0.00 0.00 0.00 65 1015.7
20260503213049 18 284 6.4 16.1 0.00 0.00 0.00 66 1015.9
20260503211533 18 0 4.8 12.9 0.00 0.00 0.00 65 1015.5
20260503210030 18 275 4.8 17.7 0.00 0.00 0.00 67 1016.0
20260503204549 18 284 4.8 20.9 0.00 0.00 0.00 65 1016.0
20260503203033 18 271 4.8 17.7 0.00 0.00 0.00 68 1016.4
20260503201530 18 225 1.6 12.9 0.00 0.00 0.00 67 1016.5
20260503200031 17 273 4.8 16.1 0.00 0.00 0.00 68 1017.1
20260503194532 17 269 1.6 14.5 0.00 0.00 0.00 68 1017.3
20260503193032 17 271 3.2 12.9 0.00 0.00 0.00 70 1017.7
20260503191530 16 217 3.2 12.9 0.00 0.00 0.00 70 1018.1
20260503190029 16 273 1.6 11.3 0.00 0.00 0.00 72 1018.2
20260503184534 15 271 3.2 14.5 0.00 0.00 0.00 73 1018.3
20260503183040 15 280 3.2 17.7 0.00 0.00 0.00 74 1018.5
20260503181528 13 271 3.2 14.5 0.00 0.00 0.00 71 1018.9
20260503180034 13 265 1.6 11.3 0.00 0.00 0.00 66 1018.9
20260503174541 12 70 3.2 11.3 0.00 0.00 0.00 64 1019.3
20260503173027 11 272 3.2 16.1 0.00 0.00 0.00 66 1019.7
20260503171533 10 90 3.2 12.9 0.00 0.00 0.00 66 1019.9
20260503150114 8 0 3.2 11.3 0.00 0.00 0.00 65 1020.9
20260503081539 6 0 0.0 0.0 0.00 0.00 0.00 66 1019.8
20260503071550 6 0 0.0 0.0 0.00 0.00 0.00 65 1019.5
20260503054540 7 0 0.0 0.0 0.00 0.00 0.00 64 1019.8
20260503053030 7 0 0.0 0.0 0.00 0.00 0.00 64 1019.7
20260503051540 7 0 0.0 0.0 0.00 0.00 0.00 64 1019.7
20260503050029 8 0 0.0 0.0 0.00 0.00 0.00 63 1019.7
20260503044531 8 0 0.0 0.0 0.00 0.00 0.00 63 1019.6
20260503043028 8 0 0.0 0.0 0.00 0.00 0.00 63 1019.6
20260503041532 8 0 0.0 0.0 0.00 0.00 0.00 62 1019.5
20260503040027 8 0 0.0 0.0 0.00 0.00 0.00 62 1019.5
20260503034530 9 0 0.0 0.0 0.00 0.00 0.00 62 1019.5
20260503033030 9 0 0.0 0.0 0.00 0.00 0.00 62 1019.4
20260503031536 10 0 0.0 0.0 0.00 0.00 0.00 62 1019.4
20260503030033 10 0 0.0 1.6 0.00 0.00 0.00 62 1019.3
20260503024539 10 0 0.0 0.0 0.00 0.00 0.00 62 1019.0
20260503023030 10 0 0.0 0.0 0.00 0.00 0.00 64 1018.7
20260503021532 10 0 0.0 0.0 0.00 0.00 0.00 65 1018.8
20260503020032 10 0 0.0 0.0 0.00 0.00 0.00 66 1018.6
20260503014530 11 0 0.0 0.0 0.00 0.00 0.00 65 1018.4
20260503013034 11 0 0.0 0.0 0.00 0.00 0.00 66 1018.2
20260503011528 11 0 0.0 0.0 0.00 0.00 0.00 66 1018.1
20260503010032 11 0 0.0 0.0 0.00 0.00 0.00 68 1017.8
20260503004535 11 0 0.0 0.0 0.00 0.00 0.00 68 1017.8